Regional Weather Roundup
Issued by NWS Albany, NY

Home | Current Version | Previous Version | Text Only | Print | Product List | Glossary On
Versions: 1 2 3 4 5 6 7 8 9 10 11 12 13 14 15 16 17 18 19 20 21 22 23 24 25 26 27
000
ASUS41 KALY 252010
RWRALY

NEW YORK STATE HOURLY WEATHER ROUNDUP
NATIONAL WEATHER SERVICE ALBANY NY
400 PM EDT MON SEP 25 2017

NOTE: "FAIR" INDICATES FEW OR NO CLOUDS BELOW 12,000 FEET WITH NO
SIGNIFICANT WEATHER AND/OR NO OBSTRUCTIONS TO VISIBILITY.

NYZ032-033-038>043-046>054-057>066-NYZ062>081-082-084-252100-
EAST


CITY           SKY/WX    TMP DP  RH WIND       PRES   REMARKS
ALBANY         MOSUNNY   91  65  41 VRB5      30.03F HX  93
GLENS FALLS    SUNNY     89  66  46 S3        30.02F HX  91
POUGHKEEPSIE   MOSUNNY   89  68  49 S3        30.00F HX  93
NEWBURGH       MOSUNNY   91  70  49 VRB5      30.04F HX  97
MONTGOMERY     SUNNY     89  70  53 NE5       30.02F HX  94
WHITE PLAINS   MOSUNNY   85  63  47 SE10      30.03F
ISLIP          MOSUNNY   79  67  66 S8        30.02F
NEW YORK CITY  MOSUNNY   85  67  54 NE12      30.01F
CENTRAL PARK   SUNNY     86  65  49 E6        30.04
$$

NYZ005>009-017-018-044>046-055-056-252100-
CENTRAL


CITY           SKY/WX    TMP DP  RH WIND       PRES   REMARKS
FULTON         SUNNY     90  65  43 VRB3      30.04F HX  92
SYRACUSE       MOSUNNY   90  67  46 N8        30.03F HX  93
ROME           SUNNY     89  68  49 CALM      30.04F HX  93
ELMIRA         SUNNY     90  61  37 W3        30.04F HX  90
BINGHAMTON     SUNNY     86  62  44 VRB5      30.09F
MONTICELLO     MOSUNNY   86  67  52 CALM      30.09F
$$

NYZ026>034-041>043-087-252100-
NORTH


CITY           SKY/WX    TMP DP  RH WIND       PRES   REMARKS
WATERTOWN      SUNNY     83  70  64 SW7       30.04F
FORT DRUM      NOT AVBL
OGDENSBURG     FAIR      92  65  41 W5        30.03F HX  94
MASSENA        SUNNY     89  70  53 W3        30.03F HX  94
SARANAC LAKE   SUNNY     88  60  38 NE7       30.09F
PLATTSBURGH    SUNNY     86  67  52 SE7       30.02F
$$

NYZ001>004-010>016-019>021-085-252100-
WEST


CITY           SKY/WX    TMP DP  RH WIND       PRES   REMARKS
NIAGARA FALLS  MOSUNNY   89  68  49 N9        30.03F HX  93
BUFFALO        PTSUNNY   90  65  43 VRB7      30.04F HX  92
DUNKIRK        MOSUNNY   85  69  58 N8        30.04F
JAMESTOWN      SUNNY     83  63  50 CALM      30.10F
WELLSVILLE     SUNNY     88  58  36 E5        30.13F
ROCHESTER      MOSUNNY   90  66  45 E6        30.05F HX  92
PENN YAN       SUNNY     87  65  47 E3        30.07F
$$

             KEY
       WCI = WIND CHILL INDEX
       VSB = VISIBILITY
       HX  = HEAT INDEX
$$




USA.gov is the U.S. government's official web portal to all federal, state and local government web resources and services.